Temperature
16 16 17 17 20 21 22 22 22 21 22 22 21 23 25 26 26 24 20 20 20 19 17 17 17 16 16 16 16 16 16 16 16 16 16 15 15 15 16 16 16 16 16 16 15 16 16 16 16
15 16 17 18 20 20 21 21 21 22 22 20 20 21 23 23 20 19 19 19 20 19 17 16 16 16 16 16 16 16 16 16 16 16 16 16 15 15 16 16 16 16 16 16 16 16 16 16 16
15 16 17 19 19 21 21 21 21 21 20 20 21 21 22 21 18 18 18 19 18 18 16 16 16 16 16 16 16 16 16 16 16 16 16 16 16 16 16 16 16 17 17 17 16 16 16 16 16
14 16 17 19 19 21 21 20 20 21 20 20 21 21 19 17 16 17 18 18 17 17 16 16 16 16 16 16 16 16 16 16 16 16 16 16 16 16 16 16 17 17 17 17 17 16 16 16 16
14 17 18 18 19 20 20 19 19 21 21 20 21 21 19 16 17 17 17 17 16 16 16 16 16 16 16 16 16 16 16 16 16 16 16 16 16 16 16 16 17 17 17 17 17 17 16 16 16
15 17 17 18 19 19 19 18 19 20 20 19 20 20 17 16 16 16 16 16 16 16 16 15 16 16 16 16 16 16 17 17 16 16 16 16 16 16 16 16 16 17 17 17 17 17 17 16 16
15 16 17 19 19 18 19 18 19 20 20 19 18 20 16 15 15 16 16 16 15 15 15 15 15 15 15 16 16 16 17 17 17 16 16 16 16 16 16 16 16 16 17 17 17 17 17 16 16
14 16 17 18 18 18 18 17 17 18 18 16 17 19 17 15 15 15 15 15 15 15 15 15 15 15 15 15 16 16 16 17 17 17 17 17 16 16 17 16 16 16 16 16 17 17 16 16 16
13 15 16 17 18 18 18 17 16 16 17 15 15 15 15 15 15 15 15 15 15 15 15 15 15 15 15 15 15 15 16 16 17 17 17 17 16 16 16 17 17 16 16 16 16 16 16 16 16
13 14 16 18 19 18 17 17 17 17 17 16 16 15 15 15 15 15 15 15 15 15 15 15 15 15 15 15 15 15 15 16 16 16 16 16 16 16 16 17 17 16 16 16 16 16 16 16 15
14 15 17 17 17 17 17 16 16 18 18 16 16 15 15 15 15 15 15 15 15 15 15 15 15 15 14 14 14 14 14 15 15 15 16 16 16 16 16 16 16 16 16 16 16 15 15 15 15
14 16 16 16 15 16 16 16 16 17 17 15 15 15 15 15 15 15 15 15 14 14 14 14 15 15 14 14 14 14 14 15 15 16 16 15 16 16 15 16 15 16 15 15 15 15 14 15 14
14 15 15 15 14 15 15 16 16 16 15 15 15 15 15 15 15 15 14 14 14 15 15 15 15 14 14 14 14 14 14 15 15 15 16 15 15 15 15 15 15 15 15 15 15 14 14 14 14
14 14 14 14 14 14 15 15 16 16 15 15 15 15 15 15 15 15 15 15 15 15 15 15 15 15 15 15 14 14 14 15 14 15 15 15 15 15 15 15 15 15 15 14 14 14 14 13 13
13 13 14 14 14 14 15 15 16 16 15 16 16 16 15 15 15 15 15 15 15 15 15 15 15 15 15 15 14 14 14 14 15 15 15 15 15 15 15 14 14 14 14 14 14 13 13 13 13
13 13 13 14 14 14 14 15 17 16 16 16 17 16 16 16 16 15 15 15 15 15 15 15 15 15 15 15 15 14 14 14 14 14 14 15 15 14 14 14 14 14 14 14 13 13 13 13 13
12 12 13 13 14 14 14 15 17 16 15 16 17 17 17 16 16 16 16 16 16 16 16 15 15 15 15 15 15 15 15 15 14 14 15 15 15 14 14 14 14 14 14 13 13 13 13 13 13
12 13 14 14 13 14 14 15 16 15 15 16 17 17 17 17 16 16 16 16 16 16 16 16 16 15 15 15 15 15 15 15 15 15 15 15 14 14 14 14 14 14 14 14 13 13 13 13 13
14 14 13 14 13 14 14 15 16 15 15 16 17 17 17 17 16 16 16 16 16 17 16 16 16 16 16 15 15 15 15 15 15 15 15 15 15 14 14 14 14 14 14 13 13 13 13 13 12
12 13 13 13 13 13 14 14 15 16 15 16 16 17 17 17 16 16 16 16 16 17 17 16 16 16 16 16 16 16 15 15 15 15 15 15 15 14 14 14 14 14 13 13 13 13 12 12 12
12 13 13 12 12 13 13 14 15 16 15 15 15 16 16 16 16 16 16 16 16 16 17 17 16 16 16 16 16 15 15 15 15 15 15 15 14 14 14 14 14 13 13 13 13 13 12 12 11
11 12 13 12 12 13 13 14 15 16 15 15 15 15 16 15 15 15 15 15 16 16 16 16 16 16 16 16 15 15 15 15 15 15 14 14 14 14 14 13 13 13 13 13 13 12 12 11 11
11 12 12 13 13 13 13 14 16 15 15 16 16 15 15 15 14 14 15 15 16 16 16 16 16 16 15 15 15 15 15 14 14 14 14 14 13 13 13 13 13 12 12 12 12 12 12 11 11
11 11 11 12 12 11 13 13 14 15 15 16 16 16 15 15 14 14 14 15 15 15 15 15 15 15 15 15 14 14 14 14 13 13 13 13 12 12 12 12 12 12 11 11 11 11 11 10 10
11 11 10 10 10 11 12 12 14 15 15 15 16 15 14 14 14 14 13 14 15 15 15 14 14 14 14 14 14 13 13 13 13 12 12 12 12 11 11 11 11 10 10 10 10 10 10 10 9
11 12 11 11 11 12 11 12 14 15 14 13 12 12 12 12 13 13 12 13 14 14 14 13 13 13 13 13 13 12 12 12 12 11 11 11 11 10 10 10 10 9 9 9 9 9 9 9 9
10 10 11 12 11 12 12 12 13 14 14 13 13 12 12 12 11 12 12 11 12 13 12 12 12 12 12 12 12 11 11 11 11 10 10 10 9 9 9 9 9 9 9 9 8 8 8 8 8
10 11 10 10 10 12 12 12 14 14 15 14 14 13 12 10 10 10 10 10 10 11 11 11 11 11 11 11 11 10 10 10 10 9 9 8 8 8 8 8 8 8 8 8 8 8 8 8 8
9 9 10 11 11 12 12 13 14 14 14 13 13 12 11 10 9 9 9 8 9 10 10 10 10 10 10 10 10 9 9 9 8 8 7 7 7 7 7 7 7 7 7 7 7 7 7 7 7
10 10 11 10 9 11 12 13 14 13 12 11 11 11 10 9 9 8 7 8 9 9 10 10 10 10 9 9 9 8 8 7 7 7 6 6 6 6 6 6 6 6 6 6 6 6 6 6 6
Wind_Speed
4 3 2 3 5 7 13 7 4 6 4 1 1 3 4 4 5 3 4 14 16 18 20 21 19 18 17 16 16 14 13 12 10 9 10 11 12 13 13 13 13 14 15 15 16 17 16 16 15
3 2 3 4 8 13 14 8 7 5 2 1 2 3 4 2 3 4 7 14 17 19 19 20 19 17 17 17 15 14 13 11 10 9 10 11 12 12 13 13 13 14 14 15 15 15 14 14 13
3 2 4 5 9 16 12 8 6 2 2 3 3 2 1 2 3 4 8 15 17 18 18 18 19 17 17 17 16 14 12 11 9 9 10 11 12 12 13 13 13 13 14 14 14 13 13 12 11
4 4 5 10 16 13 6 5 2 3 4 4 4 4 3 3 2 3 12 15 18 17 17 18 18 18 17 17 16 14 12 11 9 8 10 11 11 12 13 12 12 12 12 12 12 12 11 11 10
4 6 10 14 16 10 6 2 1 3 4 4 4 4 4 4 3 7 13 15 17 15 16 18 18 18 17 17 16 14 12 11 9 8 10 11 12 12 12 11 11 11 11 10 10 10 10 10 9
7 7 13 19 17 10 7 3 2 2 3 3 3 4 4 4 5 9 12 13 14 14 15 17 18 17 17 17 16 14 12 11 9 9 9 11 11 11 11 10 9 9 9 9 8 8 8 8 8
12 13 18 21 17 12 7 4 2 3 4 4 1 4 4 4 6 8 10 12 13 14 14 15 17 16 17 17 16 14 13 11 9 9 9 10 10 10 9 8 7 7 7 7 7 7 6 6 6
11 11 18 19 18 13 8 5 3 2 4 4 3 2 4 3 6 7 9 10 11 12 12 13 14 15 15 15 15 14 13 11 10 9 10 10 10 8 8 7 6 5 5 5 5 5 5 5 5
9 13 19 20 18 13 9 6 3 4 7 6 6 4 2 5 7 8 8 9 10 11 10 11 12 12 13 13 14 13 13 11 11 10 10 8 6 6 6 5 5 4 4 4 4 4 4 3 3
12 18 23 17 14 11 10 7 6 6 8 6 7 8 6 7 8 8 9 10 11 12 10 9 10 11 11 10 12 10 10 10 9 8 8 6 5 4 3 6 4 3 3 3 3 2 3 3 2
14 20 19 13 11 10 8 6 4 6 5 5 6 7 6 6 6 7 8 9 10 11 10 9 9 10 10 9 9 8 7 7 7 7 7 5 5 4 4 4 5 5 5 4 4 5 3 3 3
16 19 17 13 9 8 8 6 4 3 3 5 6 6 6 4 4 5 7 8 8 9 10 9 9 9 10 9 8 8 7 7 6 7 7 6 5 4 4 4 4 5 5 4 5 4 4 4 5
18 15 15 12 9 8 7 8 7 6 4 5 4 5 5 3 2 3 5 6 7 9 9 10 9 9 9 8 7 7 7 7 7 6 7 7 5 5 5 5 5 5 5 5 6 6 6 6 6
15 14 14 13 11 9 9 10 10 11 8 6 3 1 3 3 1 2 5 7 9 9 9 9 10 10 10 8 8 7 7 7 7 7 8 8 7 6 5 5 5 6 6 6 6 7 6 7 7
12 13 13 13 13 9 9 13 17 16 12 11 8 5 2 0 0 2 5 8 10 10 10 10 10 10 11 10 9 8 7 8 7 7 8 8 8 7 7 6 6 7 7 7 7 8 7 7 7
13 14 15 12 14 11 13 20 20 15 14 15 13 10 6 3 2 2 3 6 8 9 10 10 9 10 11 10 9 8 8 8 7 7 7 9 9 9 8 7 7 8 7 7 7 7 7 8 8
13 17 20 13 15 12 15 16 13 11 14 17 17 14 10 6 4 2 2 4 6 8 9 10 10 11 10 9 8 8 7 7 7 7 7 8 9 10 9 8 8 9 8 7 6 7 7 8 9
20 20 21 16 14 15 18 15 6 8 14 17 17 16 13 11 8 3 2 2 4 6 8 9 10 9 9 8 7 6 6 6 6 6 7 8 8 9 9 8 9 9 7 7 7 9 8 8 8
17 17 18 14 11 15 18 17 12 9 12 16 16 17 17 15 9 4 3 3 4 5 7 9 9 9 8 7 6 6 6 6 5 5 6 6 7 8 9 8 8 8 8 9 9 9 9 8 7
15 16 14 9 9 11 14 17 15 14 14 15 16 18 19 17 12 7 5 4 5 5 6 7 8 8 8 6 5 4 4 4 4 3 3 3 4 5 6 7 7 7 7 9 10 9 7 6 6
14 16 15 11 9 8 8 13 18 17 16 16 16 17 17 17 14 10 7 6 5 6 6 6 6 6 6 6 5 4 3 3 4 4 3 2 3 4 5 6 6 6 7 8 9 9 11 9 8
11 12 12 14 12 8 11 9 14 16 17 18 18 17 17 15 13 11 9 8 7 6 5 5 6 5 5 6 6 7 5 5 4 2 2 1 1 2 3 4 6 6 6 8 9 9 9 10 9
7 10 11 12 10 6 9 9 7 9 16 19 19 18 18 16 15 13 12 10 8 7 6 6 6 6 5 5 5 5 4 3 2 2 2 2 1 1 2 3 4 5 5 7 8 8 8 8 9
10 11 8 6 6 7 11 11 8 7 13 14 16 18 18 17 16 15 11 9 9 9 8 7 7 6 5 4 4 4 4 4 3 3 3 2 2 1 2 3 3 4 4 5 6 7 8 8 9
12 13 7 7 7 7 6 9 8 6 8 10 11 12 11 11 13 13 13 13 12 11 10 9 9 7 6 5 4 3 3 3 3 3 3 3 2 2 2 3 3 4 4 5 5 6 6 6 7
12 10 5 6 8 5 6 9 6 5 6 7 8 9 8 9 10 11 13 13 13 12 11 10 9 8 6 5 4 3 3 2 1 1 2 2 2 2 3 3 3 4 4 4 4 4 4 4 4
9 5 1 1 3 4 6 5 7 6 6 5 5 6 7 8 8 10 11 12 12 12 12 11 10 8 7 5 4 3 2 1 1 1 1 1 1 2 2 2 2 2 3 3 3 2 2 2 2
3 6 4 4 5 5 5 5 4 3 1 1 3 4 5 5 6 8 10 12 12 11 10 10 9 8 7 5 4 2 2 1 1 1 1 1 0 0 1 1 1 2 3 3 2 2 2 3 3
7 6 4 4 3 3 3 2 2 2 1 3 5 5 5 3 4 7 9 11 11 11 10 9 8 7 6 5 4 3 2 2 2 1 1 1 0 0 1 1 1 2 3 3 3 3 4 4 5
5 8 8 6 4 3 3 2 2 3 3 4 4 4 3 2 4 7 9 11 11 11 10 9 8 7 6 5 4 3 3 3 2 2 1 1 1 1 1 2 2 3 3 3 4 4 5 5 6
Wind_Direction
298 296 245 218 210 219 220 198 184 171 186 199 259 240 219 184 181 110 112 155 149 154 155 154 155 153 149 142 136 131 124 117 114 116 119 117 110 104 98 94 89 87 87 88 88 88 87 85 84
278 256 212 210 220 215 211 199 191 177 147 164 190 214 208 144 44 88 142 155 154 154 157 159 150 151 146 141 138 133 127 121 118 121 123 121 115 108 101 97 93 90 90 89 89 88 87 84 83
234 237 207 204 221 222 207 188 193 201 225 198 171 175 202 78 75 121 149 157 155 154 157 150 147 148 145 142 139 136 130 124 120 121 124 123 119 111 104 100 96 95 94 93 91 88 84 81 79
202 186 204 217 217 218 203 156 162 190 168 181 180 150 114 41 9 119 147 159 156 154 155 149 148 146 144 142 141 138 133 128 124 123 127 127 121 113 107 104 101 99 98 97 93 87 82 78 76
206 195 204 214 216 202 192 156 172 185 161 159 182 157 116 33 35 134 149 158 156 153 155 152 149 146 145 144 142 140 136 134 132 130 131 128 120 114 111 109 106 104 102 100 95 89 81 76 75
183 197 207 209 204 193 187 180 183 158 137 126 160 149 83 51 104 137 148 157 156 154 155 153 149 148 149 146 144 143 141 139 136 131 126 125 121 119 117 115 112 109 105 102 98 93 86 81 79
195 199 211 209 199 192 184 173 173 145 126 86 59 141 99 87 107 134 145 153 157 159 159 159 160 158 152 149 147 146 144 141 137 132 124 119 120 123 122 120 115 110 106 103 101 97 90 85 83
207 203 213 210 200 193 172 154 107 91 93 59 32 110 110 102 119 128 138 152 161 164 165 164 165 164 163 158 151 149 147 143 135 127 125 124 126 129 131 139 122 115 110 108 104 100 94 88 84
195 205 209 204 201 185 167 155 117 90 100 81 63 42 26 124 135 135 141 154 166 170 170 170 168 167 166 162 156 156 152 148 146 141 137 150 160 158 158 132 121 122 117 118 115 110 110 114 111
197 208 210 204 200 177 162 154 136 134 114 94 70 58 87 126 147 153 159 167 174 176 175 174 173 169 167 161 164 167 165 164 173 164 165 175 167 164 159 133 143 139 136 148 134 131 165 222 219
203 212 207 201 191 173 158 151 148 152 120 91 69 66 97 114 147 165 173 179 183 182 178 179 177 175 172 168 170 171 174 174 181 180 180 179 179 181 192 189 182 196 202 210 187 217 233 256 271
205 214 208 198 187 187 180 175 184 193 137 115 89 84 98 114 162 183 188 189 189 191 188 188 184 184 183 180 178 181 184 187 190 191 194 192 196 205 208 218 215 220 220 229 239 249 249 258 261
206 203 204 200 193 196 200 213 220 220 168 141 113 93 91 105 160 201 208 205 201 203 200 196 194 193 188 188 186 192 198 202 201 199 204 210 212 215 219 224 225 231 234 234 242 250 257 264 268
202 196 193 193 196 201 210 229 229 228 200 199 192 131 86 83 153 214 218 217 212 211 207 201 200 200 195 197 198 201 205 206 213 210 213 216 224 228 232 236 235 238 238 244 250 256 263 267 267
187 190 194 199 196 195 205 229 230 228 221 232 236 232 212 129 217 242 229 224 217 212 210 205 201 201 203 207 209 209 210 212 215 217 220 221 227 234 238 246 245 245 244 247 253 260 263 267 267
185 194 200 198 196 190 200 228 225 224 228 239 241 237 234 238 247 259 245 227 221 212 207 205 201 203 206 209 210 212 213 214 220 222 223 224 229 235 242 246 250 252 252 250 252 259 261 262 263
187 200 202 190 194 188 204 232 227 217 224 239 241 240 239 240 245 239 244 228 220 214 207 202 202 204 206 207 211 215 217 219 225 227 229 229 233 237 240 246 253 255 253 253 254 257 260 267 269
188 196 198 196 188 197 209 225 223 214 222 233 238 239 239 239 241 227 217 223 215 213 209 203 200 204 204 204 208 209 218 222 225 228 232 235 236 237 241 247 253 255 252 252 251 254 255 262 272
190 192 194 196 184 200 215 226 229 224 226 231 233 232 235 237 233 203 189 192 192 197 199 198 196 197 196 196 201 208 216 218 220 225 234 239 242 242 241 248 254 252 252 256 257 256 259 258 259
179 184 182 175 180 200 216 229 233 232 231 231 230 230 231 232 223 206 193 189 192 189 192 192 191 189 192 196 195 200 202 212 215 208 214 232 245 250 249 251 255 253 254 257 258 256 256 257 241
183 185 178 164 160 194 209 233 233 233 236 239 238 237 235 230 226 219 212 200 191 188 186 181 179 178 183 184 176 167 175 185 193 200 207 238 261 258 255 258 261 261 258 260 261 257 254 259 253
176 181 172 166 170 188 203 232 225 225 228 233 235 235 236 234 231 223 214 208 196 184 172 169 166 164 170 179 188 196 204 212 208 205 211 236 263 272 274 271 269 267 263 263 265 263 260 260 261
159 160 167 178 188 192 204 233 237 215 229 232 232 234 236 236 232 226 216 202 185 171 165 160 155 150 154 164 176 192 203 206 193 203 220 231 236 274 298 291 282 276 273 271 271 269 263 259 260
137 137 129 161 194 221 215 223 249 220 232 233 232 234 236 238 234 228 213 189 173 166 161 158 151 141 141 146 158 178 186 192 201 217 231 240 244 260 310 310 295 289 285 281 278 273 267 262 260
164 154 152 176 201 224 185 221 249 247 242 245 246 241 242 244 239 227 206 190 178 171 164 160 155 146 142 141 142 147 165 189 210 225 238 251 256 265 307 313 304 298 294 289 285 277 275 273 269
177 182 188 186 196 189 183 228 245 258 267 269 268 265 257 248 237 224 208 195 182 173 167 163 157 149 144 140 135 132 144 175 196 227 250 260 273 289 308 308 307 307 305 299 291 283 283 286 283
170 186 349 91 135 194 204 235 269 255 255 258 265 266 261 252 237 221 202 192 180 172 170 164 157 151 147 144 142 140 146 165 184 216 245 260 277 294 303 318 323 333 335 327 311 305 317 325 342
179 161 168 177 182 212 210 229 226 175 155 5 335 313 297 269 236 210 192 183 175 168 163 161 158 152 149 149 146 146 149 151 171 199 214 248 287 288 294 353 5 14 18 13 24 37 34 57 49
158 174 193 190 230 228 212 186 179 188 356 338 341 335 315 274 225 198 183 175 168 161 161 159 157 155 155 155 153 159 156 155 166 170 164 171 148 102 69 57 54 49 46 46 63 68 67 74 68
204 197 194 196 200 221 239 221 137 232 275 286 313 334 325 254 200 185 176 170 168 166 166 164 163 164 162 159 162 163 162 170 179 170 160 157 137 99 87 86 78 68 62 63 75 79 74 76 73
Height
1536 1538 1540 1542 1541 1537 1531 1531 1530 1532 1532 1534 1534 1534 1531 1530 1532 1539 1539 1540 1544 1547 1550 1552 1556 1560 1562 1564 1565 1567 1567 1567 1567 1567 1568 1568 1568 1568 1568 1567 1567 1566 1566 1566 1567 1567 1568 1568 1568
1535 1538 1541 1541 1536 1534 1530 1529 1531 1531 1533 1534 1534 1534 1533 1533 1536 1536 1536 1540 1544 1548 1551 1554 1557 1560 1563 1565 1566 1567 1568 1568 1568 1569 1569 1570 1570 1570 1570 1569 1569 1569 1569 1569 1569 1569 1570 1570 1570
1534 1537 1540 1536 1532 1528 1527 1529 1529 1532 1533 1534 1534 1534 1535 1536 1536 1536 1537 1540 1545 1549 1552 1554 1557 1561 1563 1565 1567 1568 1569 1569 1570 1570 1571 1571 1571 1572 1572 1571 1571 1571 1571 1571 1571 1572 1572 1572 1573
1534 1537 1537 1533 1529 1526 1526 1529 1531 1531 1532 1533 1533 1534 1536 1536 1536 1537 1537 1540 1546 1549 1553 1555 1558 1561 1564 1566 1568 1569 1570 1570 1571 1571 1572 1573 1573 1573 1573 1573 1573 1573 1573 1574 1574 1574 1574 1575 1575
1532 1534 1532 1529 1525 1526 1529 1531 1531 1530 1530 1532 1533 1533 1535 1536 1535 1536 1538 1542 1547 1550 1553 1556 1559 1562 1564 1566 1568 1569 1571 1571 1572 1573 1573 1574 1574 1575 1575 1575 1575 1575 1575 1576 1576 1576 1576 1577 1577
1531 1530 1528 1525 1523 1527 1529 1531 1531 1530 1531 1532 1533 1533 1536 1536 1536 1538 1540 1544 1548 1551 1554 1557 1559 1562 1565 1567 1568 1570 1571 1572 1573 1574 1574 1575 1575 1576 1576 1577 1577 1577 1577 1577 1578 1578 1578 1578 1578
1527 1525 1521 1518 1521 1526 1529 1531 1531 1530 1530 1533 1534 1534 1537 1538 1538 1540 1542 1545 1548 1552 1555 1557 1560 1562 1565 1567 1568 1570 1571 1572 1573 1574 1575 1576 1576 1577 1577 1577 1578 1578 1578 1578 1579 1579 1579 1579 1579
1522 1524 1520 1517 1520 1524 1528 1531 1532 1531 1533 1535 1535 1535 1537 1539 1539 1541 1543 1546 1549 1552 1555 1558 1560 1563 1565 1567 1568 1570 1571 1572 1573 1574 1575 1576 1577 1577 1578 1578 1578 1579 1579 1579 1579 1579 1580 1580 1580
1521 1523 1519 1516 1517 1522 1527 1529 1532 1533 1534 1535 1536 1537 1537 1538 1540 1542 1544 1547 1549 1552 1555 1558 1560 1563 1565 1567 1568 1569 1571 1572 1573 1574 1575 1576 1577 1578 1578 1578 1579 1579 1579 1579 1579 1580 1580 1580 1580
1518 1517 1513 1514 1517 1521 1526 1528 1531 1532 1534 1536 1537 1537 1537 1538 1541 1543 1545 1547 1550 1552 1555 1557 1560 1562 1564 1566 1568 1569 1570 1571 1573 1574 1575 1576 1577 1577 1578 1578 1578 1579 1579 1579 1579 1579 1579 1579 1579
1513 1510 1512 1516 1519 1522 1526 1529 1531 1531 1533 1536 1537 1537 1538 1540 1542 1544 1546 1548 1550 1553 1554 1556 1559 1561 1563 1565 1567 1569 1570 1571 1572 1573 1574 1575 1576 1577 1577 1578 1578 1578 1579 1579 1579 1579 1579 1579 1578
1510 1510 1513 1516 1520 1523 1525 1528 1530 1531 1534 1536 1537 1537 1539 1540 1542 1544 1546 1548 1550 1552 1554 1555 1558 1560 1562 1564 1566 1568 1569 1570 1571 1572 1573 1574 1575 1575 1576 1576 1577 1577 1578 1578 1578 1578 1578 1578 1577
1507 1510 1514 1517 1520 1523 1526 1528 1530 1531 1534 1535 1536 1537 1539 1541 1542 1544 1545 1547 1549 1550 1552 1554 1556 1558 1561 1563 1564 1566 1568 1569 1570 1571 1572 1572 1573 1574 1575 1575 1575 1576 1576 1576 1576 1577 1577 1576 1576
1506 1510 1514 1517 1520 1523 1525 1527 1529 1529 1532 1534 1536 1537 1538 1540 1541 1542 1544 1545 1547 1549 1551 1552 1554 1556 1559 1561 1563 1565 1566 1567 1568 1569 1570 1571 1572 1572 1573 1574 1574 1574 1574 1575 1575 1575 1574 1574 1574
1507 1510 1513 1516 1518 1521 1525 1526 1525 1526 1530 1532 1534 1535 1536 1538 1539 1540 1542 1543 1545 1547 1549 1551 1553 1555 1557 1559 1561 1563 1564 1566 1567 1567 1568 1569 1570 1570 1571 1572 1572 1572 1572 1572 1572 1573 1572 1572 1571
1506 1509 1512 1513 1516 1519 1525 1521 1519 1524 1528 1529 1530 1532 1534 1535 1537 1538 1539 1541 1543 1545 1547 1549 1551 1553 1555 1558 1559 1561 1562 1564 1565 1565 1566 1567 1568 1568 1569 1569 1570 1570 1570 1570 1570 1570 1569 1569 1568
1504 1504 1505 1510 1514 1516 1519 1515 1515 1521 1524 1525 1526 1528 1531 1532 1535 1536 1537 1538 1541 1543 1545 1547 1549 1551 1554 1556 1557 1559 1560 1561 1562 1563 1564 1564 1565 1566 1566 1567 1567 1568 1567 1567 1567 1566 1566 1566 1565
1496 1496 1500 1506 1510 1513 1514 1512 1515 1518 1520 1521 1522 1524 1526 1529 1531 1533 1534 1536 1538 1540 1543 1545 1547 1549 1552 1553 1555 1556 1557 1558 1560 1560 1561 1562 1562 1563 1563 1563 1564 1564 1564 1563 1563 1563 1562 1561 1561
1490 1495 1500 1503 1509 1511 1511 1512 1513 1516 1517 1517 1518 1520 1522 1525 1528 1529 1531 1533 1535 1537 1540 1542 1544 1547 1549 1550 1552 1553 1554 1556 1557 1557 1558 1558 1559 1559 1559 1559 1560 1559 1559 1559 1559 1558 1557 1556 1556
1494 1497 1501 1507 1510 1510 1510 1511 1510 1512 1513 1513 1514 1515 1517 1520 1523 1525 1528 1530 1532 1534 1537 1539 1541 1543 1546 1548 1549 1550 1551 1552 1553 1554 1554 1554 1555 1555 1555 1555 1555 1554 1554 1554 1553 1553 1552 1551 1551
1496 1496 1500 1505 1510 1511 1512 1511 1507 1506 1509 1510 1510 1511 1513 1516 1519 1522 1524 1526 1528 1531 1533 1535 1538 1540 1542 1544 1546 1547 1548 1548 1549 1549 1549 1550 1550 1550 1550 1550 1549 1549 1548 1548 1548 1547 1546 1545 1545
1497 1496 1500 1504 1507 1509 1509 1505 1498 1499 1502 1504 1505 1507 1509 1512 1515 1517 1520 1522 1525 1527 1529 1531 1534 1536 1539 1540 1542 1543 1544 1544 1545 1545 1545 1545 1545 1545 1544 1544 1544 1543 1543 1542 1542 1541 1540 1539 1539
1496 1499 1501 1503 1504 1507 1507 1505 1493 1496 1497 1497 1500 1502 1505 1508 1511 1513 1515 1518 1521 1523 1525 1528 1530 1532 1534 1536 1538 1539 1540 1540 1540 1540 1540 1540 1540 1539 1539 1538 1538 1537 1536 1536 1535 1534 1534 1533 1532
1499 1502 1505 1505 1505 1511 1503 1504 1495 1491 1491 1492 1495 1497 1500 1503 1506 1508 1511 1513 1516 1519 1521 1524 1526 1528 1530 1532 1533 1534 1535 1536 1536 1536 1535 1535 1534 1534 1533 1533 1532 1531 1530 1530 1529 1528 1527 1527 1526
1498 1500 1508 1512 1512 1505 1502 1503 1493 1487 1489 1490 1492 1494 1496 1499 1501 1503 1505 1506 1510 1513 1516 1519 1522 1524 1526 1528 1529 1530 1531 1531 1531 1531 1531 1530 1529 1529 1528 1527 1526 1525 1525 1524 1523 1522 1521 1521 1520
1495 1495 1498 1500 1502 1500 1507 1500 1489 1487 1490 1491 1492 1493 1493 1494 1495 1497 1499 1501 1504 1508 1512 1515 1518 1520 1522 1524 1525 1526 1526 1527 1526 1526 1526 1525 1524 1524 1523 1522 1521 1520 1519 1518 1518 1517 1516 1516 1515
1497 1498 1499 1496 1498 1498 1496 1495 1490 1486 1487 1488 1489 1490 1490 1490 1491 1492 1494 1496 1499 1503 1507 1511 1514 1516 1518 1520 1521 1522 1522 1522 1522 1521 1521 1520 1520 1519 1518 1517 1516 1515 1514 1514 1513 1512 1511 1511 1510
1496 1497 1500 1501 1501 1494 1492 1491 1484 1483 1483 1485 1486 1487 1487 1487 1487 1488 1489 1492 1495 1499 1504 1508 1511 1513 1515 1516 1517 1518 1518 1517 1517 1517 1516 1516 1515 1515 1514 1513 1512 1511 1510 1509 1509 1508 1507 1507 1506
1499 1500 1497 1496 1495 1493 1490 1487 1482 1483 1485 1486 1486 1486 1485 1485 1484 1485 1486 1489 1492 1497 1501 1505 1508 1510 1511 1512 1513 1513 1513 1513 1513 1512 1512 1512 1511 1511 1510 1509 1508 1508 1507 1506 1505 1504 1504 1504 1503
1494 1493 1494 1496 1502 1496 1491 1488 1483 1485 1486 1487 1486 1485 1484 1483 1483 1483 1485 1487 1491 1495 1499 1502 1505 1507 1508 1509 1509 1509 1509 1509 1508 1508 1508 1508 1507 1507 1506 1506 1505 1504 1504 1503 1503 1502 1501 1501 1500